Flag for Germany Weather past 2 weeks in Forchheim, Bavaria, Germany

Now
76 °F

Sunny.


Feels Like: 78 °F
Forecast: 53 / 94 °F
Wind: 1 mph from Northwest

Location: Bamberg

Current Time: Jul 6, 2015 at 10:11:12 PM

Latest Report: Jul 6, 2015 at 9:00 PM


Visibility: 44 mi

Pressure: 30.06 "Hg

Humidity: 44%

Dew point: 52 °F

Location of ForchheimLocation

Historic Weather in Forchheim — Graph

°F

Forchheim temperature yesterday

Maximum temperature yesterday: 98 °F (at 5:00 PM)
Minimum temperature yesterday: 64 °F (at 5:00 AM)
Average temperature yesterday: 83 °F

Past Weeks' High & Low Weather Summary

 TemperatureHumidityPressure
High98 °F (Jul 5, 5:00 PM)100% (Jun 28, 3:00 AM)30.26 "Hg (Jun 28, 3:00 AM)
Low45 °F (Jun 25, 2:00 AM)25% (Jul 5, 3:00 PM)29.70 "Hg (Jun 23, 1:00 AM)
Average68 °F69%30.09 "Hg
* Reported Jun 21 9:00 PM — Jul 6 9:00 PM, Forchheim, Weather by CustomWeather, © 2015

Note: Actual official high and low records may vary slightly from our data, if they occured in-between our weather recording intervals... More about our weather records

Advertising

Forchheim weather history for previous 24 hours

 ConditionsComfort  
Time TempWeatherWind HumidityBarometerVisibility
9:00 PM
Mon, Jul 6
76 °FSunny.1 mph44%30.06 "Hg43 mi
8:00 PM81 °FSunny.3 mph30%30.05 "Hg43 mi
7:00 PM82 °FSunny.3 mph32%30.06 "Hg40 mi
6:00 PM83 °FSunny.2 mph32%30.06 "Hg37 mi
5:00 PM82 °FSunny.3 mph31%30.08 "Hg25 mi
4:00 PM81 °FSunny.5 mph33%30.10 "Hg19 mi
3:00 PM79 °FSunny.5 mph35%30.11 "Hg7 mi
2:00 PM79 °FSunny.3 mph38%30.12 "Hg25 mi
1:00 PM77 °FSunny.5 mph45%30.14 "Hg10 mi
12:00 PM75 °FScattered clouds.5 mph52%30.15 "Hg9 mi
11:00 AM72 °FHaze.3 mph64%30.17 "Hg25 mi
10:00 AM69 °FPartly sunny.3 mph69%30.18 "Hg37 mi
9:00 AM69 °FOvercast.3 mph72%30.16 "Hg31 mi
8:00 AM68 °FPartly sunny.3 mph82%30.14 "Hg22 mi
7:00 AM69 °FScattered clouds.5 mph88%30.11 "Hg7 mi
5:00 AM69 °FPassing clouds.2 mph93%30.05 "Hg6 mi
4:00 AM70 °FLight rain. Overcast.2 mph91%30.04 "Hg5 mi
3:00 AM71 °FOvercast.5 mph86%30.01 "Hg17 mi
2:00 AM71 °FPassing clouds.3 mph84%29.97 "Hg17 mi
1:00 AM71 °FOvercast.2 mph90%29.94 "Hg11 mi
12:00 AM82 °FOvercast.8 mph53%29.91 "Hg11 mi
11:00 PM
Sun, Jul 5
83 °FPassing clouds.3 mph48%29.82 "Hg19 mi
10:00 PM84 °FClear.3 mph49%29.84 "Hg19 mi
Weather by CustomWeather, © 2015

See weather overviewHow to use our weather pages